• In Hungary
  • List of Countries
  • For 7 days
  • Water Temperature
  • Satellite Maps
  • Weather Map
  • News
  • Weather Widgets
  • user-avatar
    Login

    Hourly Weather Lewis

    Today, 21 October, Sunday

    Time Temperature Precipitation Wind Pressure Humidity
    00:00 +11°C° 0.7 mm 8 mps 753 mmHg 92%
    01:00 +10°C° 1 mm 9 mps 753 mmHg 89%
    02:00 +10°C° 1 mm 9 mps 753 mmHg 86%
    03:00 +8°C° 1 mm 9 mps 753 mmHg 84%
    04:00 +8°C° 0.6 mm 9 mps 753 mmHg 83%
    05:00 +8°C° 0.6 mm 9 mps 753 mmHg 82%
    06:00 +7°C° 0 mm 9 mps 753 mmHg 85%
    07:00 +8°C° 0.3 mm 10 mps 754 mmHg 82%
    08:00 +8°C° 0.3 mm 10 mps 754 mmHg 78%
    09:00 +8°C° 0.3 mm 11 mps 754 mmHg 75%
    10:00 +8°C° 0.1 mm 11 mps 755 mmHg 71%
    11:00 +8°C° 0.1 mm 12 mps 755 mmHg 67%
    12:00 +8°C° 0.1 mm 12 mps 756 mmHg 64%
    13:00 +8°C° 0.1 mm 13 mps 756 mmHg 63%
    14:00 +6°C° 0.1 mm 14 mps 757 mmHg 63%
    15:00 +6°C° 0.1 mm 15 mps 757 mmHg 63%
    16:00 +6°C° 0.1 mm 14 mps 757 mmHg 62%
    17:00 +6°C° 0.1 mm 14 mps 758 mmHg 62%
    18:00 +5°C° 0.1 mm 14 mps 758 mmHg 62%
    19:00 +5°C° 0.3 mm 14 mps 759 mmHg 61%
    20:00 +5°C° 0.3 mm 14 mps 760 mmHg 61%
    21:00 +5°C° 0.3 mm 15 mps 760 mmHg 60%
    22:00 +5°C° 0.2 mm 14 mps 761 mmHg 61%
    23:00 +5°C° 0.2 mm 14 mps 761 mmHg 62%

    Tomorrow, 22 October, Monday

    Time Temperature Precipitation Wind Pressure Humidity
    00:00 +6°C° 0.2 mm 14 mps 761 mmHg 63%
    01:00 +7°C° 0.1 mm 13 mps 761 mmHg 64%
    02:00 +7°C° 0.1 mm 13 mps 762 mmHg 66%
    03:00 +7°C° 0.1 mm 13 mps 762 mmHg 68%
    04:00 +7°C° 0.2 mm 13 mps 762 mmHg 69%
    05:00 +7°C° 0.2 mm 13 mps 762 mmHg 71%
    06:00 +7°C° 0.2 mm 13 mps 762 mmHg 73%
    07:00 +8°C° 0.2 mm 14 mps 762 mmHg 74%
    08:00 +8°C° 0.2 mm 14 mps 762 mmHg 75%
    09:00 +8°C° 0.2 mm 15 mps 762 mmHg 76%
    10:00 +8°C° 0.1 mm 15 mps 761 mmHg 77%
    11:00 +7°C° 0.1 mm 16 mps 761 mmHg 78%
    12:00 +7°C° 0.1 mm 16 mps 761 mmHg 78%
    13:00 +7°C° 0.1 mm 16 mps 760 mmHg 79%
    14:00 +7°C° 0.1 mm 17 mps 760 mmHg 80%
    15:00 +7°C° 0.1 mm 17 mps 759 mmHg 81%
    16:00 +7°C° 0.1 mm 17 mps 759 mmHg 82%
    17:00 +9°C° 0.1 mm 16 mps 759 mmHg 82%
    18:00 +9°C° 0.1 mm 16 mps 759 mmHg 83%
    19:00 +9°C° 0.1 mm 16 mps 759 mmHg 84%
    20:00 +9°C° 0.1 mm 15 mps 759 mmHg 84%
    21:00 +9°C° 0.1 mm 15 mps 759 mmHg 84%
    22:00 +9°C° 0.1 mm 15 mps 759 mmHg 85%
    23:00 +9°C° 0.1 mm 15 mps 758 mmHg 86%

    Day after tomorrow, 23 October, Tuesday

    Time Temperature Precipitation Wind Pressure Humidity
    00:00 +9°C° 0.1 mm 16 mps 758 mmHg 86%
    01:00 +9°C° 0.3 mm 16 mps 758 mmHg 86%
    02:00 +9°C° 0.3 mm 16 mps 757 mmHg 85%
    03:00 +9°C° 0.3 mm 16 mps 757 mmHg 84%
    04:00 +9°C° 0.3 mm 15 mps 757 mmHg 85%
    05:00 +9°C° 0.3 mm 14 mps 757 mmHg 86%
    06:00 +9°C° 0.3 mm 14 mps 757 mmHg 87%
    07:00 +9°C° 0.1 mm 14 mps 757 mmHg 88%
    08:00 +9°C° 0.1 mm 13 mps 757 mmHg 88%
    09:00 +9°C° 0.1 mm 13 mps 757 mmHg 89%
    10:00 +10°C° 0.2 mm 13 mps 757 mmHg 89%
    11:00 +10°C° 0.2 mm 12 mps 757 mmHg 90%
    12:00 +10°C° 0.2 mm 12 mps 758 mmHg 90%
    13:00 +10°C° 0.2 mm 12 mps 758 mmHg 90%
    14:00 +10°C° 0.2 mm 12 mps 758 mmHg 90%
    15:00 +10°C° 0.2 mm 12 mps 758 mmHg 90%
    16:00 +10°C° 0.1 mm 12 mps 758 mmHg 91%
    17:00 +11°C° 0.1 mm 11 mps 758 mmHg 91%
    18:00 +11°C° 0.1 mm 11 mps 758 mmHg 91%
    19:00 +11°C° 0 mm 11 mps 759 mmHg 92%
    20:00 +9°C° 0 mm 11 mps 759 mmHg 92%
    21:00 +9°C° 0 mm 11 mps 759 mmHg 92%
    22:00 +9°C° 0 mm 11 mps 759 mmHg 92%
    23:00 +9°C° 0 mm 11 mps 760 mmHg 92%

    24 October, Wednesday

    Time Temperature Precipitation Wind Pressure Humidity
    00:00 +9°C° 0 mm 10 mps 760 mmHg 92%
    01:00 +9°C° 0 mm 10 mps 760 mmHg 92%
    02:00 +9°C° 0 mm 10 mps 760 mmHg 92%
    03:00 +8°C° 0 mm 10 mps 760 mmHg 91%
    04:00 +8°C° 0 mm 10 mps 760 mmHg 90%
    05:00 +7°C° 0 mm 10 mps 760 mmHg 89%
    06:00 +7°C° 0 mm 11 mps 760 mmHg 88%
    07:00 +7°C° 0 mm 10 mps 760 mmHg 87%
    08:00 +7°C° 0 mm 10 mps 760 mmHg 87%
    09:00 +7°C° 0 mm 10 mps 760 mmHg 86%
    10:00 +8°C° 0.1 mm 10 mps 760 mmHg 86%
    11:00 +8°C° 0.1 mm 10 mps 760 mmHg 85%
    12:00 +8°C° 0.1 mm 10 mps 760 mmHg 84%
    13:00 +8°C° 0.1 mm 10 mps 760 mmHg 85%
    14:00 +8°C° 0.1 mm 10 mps 759 mmHg 85%
    15:00 +8°C° 0.1 mm 10 mps 759 mmHg 85%
    16:00 +8°C° 0.1 mm 10 mps 759 mmHg 85%
    17:00 +8°C° 0.1 mm 10 mps 759 mmHg 85%
    18:00 +8°C° 0.1 mm 10 mps 758 mmHg 85%
    19:00 +8°C° 0.1 mm 10 mps 758 mmHg 86%
    20:00 +8°C° 0.1 mm 10 mps 758 mmHg 87%
    21:00 +8°C° 0.1 mm 11 mps 757 mmHg 88%
    22:00 +8°C° 0.1 mm 11 mps 757 mmHg 88%
    23:00 +8°C° 0.1 mm 11 mps 757 mmHg 89%

    25 October, Thursday

    Time Temperature Precipitation Wind Pressure Humidity
    00:00 +8°C° 0.1 mm 11 mps 756 mmHg 89%
    01:00 +8°C° 0.1 mm 11 mps 756 mmHg 89%
    02:00 +8°C° 0.1 mm 11 mps 755 mmHg 89%
    03:00 +8°C° 0.1 mm 10 mps 755 mmHg 89%
    04:00 +8°C° 0.1 mm 10 mps 755 mmHg 89%
    05:00 +8°C° 0.1 mm 10 mps 754 mmHg 88%
    06:00 +8°C° 0.1 mm 10 mps 754 mmHg 87%
    07:00 +8°C° 0.2 mm 9 mps 754 mmHg 87%
    08:00 +8°C° 0.2 mm 9 mps 753 mmHg 86%
    09:00 +9°C° 0.2 mm 8 mps 753 mmHg 86%
    10:00 +9°C° 0.4 mm 8 mps 752 mmHg 85%
    11:00 +9°C° 0.4 mm 8 mps 752 mmHg 85%
    12:00 +9°C° 0.4 mm 8 mps 752 mmHg 85%
    13:00 +7°C° 0.8 mm 8 mps 751 mmHg 87%
    14:00 +8°C° 0.8 mm 7 mps 751 mmHg 88%
    15:00 +6°C° 0.8 mm 7 mps 750 mmHg 90%
    16:00 +6°C° 0.6 mm 7 mps 750 mmHg 83%
    17:00 +6°C° 0.6 mm 8 mps 750 mmHg 77%
    18:00 +6°C° 0.6 mm 8 mps 749 mmHg 71%
    19:00 +6°C° 0.1 mm 8 mps 749 mmHg 70%
    20:00 +6°C° 0.1 mm 8 mps 749 mmHg 68%
    21:00 +6°C° 0.1 mm 8 mps 749 mmHg 67%
    22:00 +5°C° 0.2 mm 8 mps 749 mmHg 67%
    23:00 +5°C° 0.2 mm 9 mps 749 mmHg 68%

    26 October, Friday

    Time Temperature Precipitation Wind Pressure Humidity
    00:00 +5°C° 0.2 mm 9 mps 749 mmHg 68%
    01:00 +5°C° 0.2 mm 10 mps 749 mmHg 69%
    02:00 +5°C° 0.2 mm 10 mps 749 mmHg 69%
    03:00 +4°C° 0.2 mm 11 mps 749 mmHg 69%
    04:00 +4°C° 0.1 mm 12 mps 750 mmHg 68%
    05:00 +3°C° 0.1 mm 12 mps 750 mmHg 67%
    06:00 +3°C° 0.1 mm 13 mps 751 mmHg 65%
    07:00 +3°C° 0.1 mm 12 mps 751 mmHg 63%
    08:00 +3°C° 0.1 mm 12 mps 752 mmHg 62%
    09:00 +3°C° 0.1 mm 11 mps 752 mmHg 60%
    10:00 +3°C° 0.3 mm 11 mps 752 mmHg 61%
    11:00 +3°C° 0.3 mm 11 mps 752 mmHg 62%
    12:00 +3°C° 0.3 mm 10 mps 752 mmHg 64%
    13:00 +3°C° 0.5 mm 11 mps 752 mmHg 63%
    14:00 +1°C° 0.5 mm 13 mps 752 mmHg 62%
    15:00 +1°C° 0.5 mm 14 mps 752 mmHg 62%
    16:00 +1°C° 0.3 mm 15 mps 752 mmHg 64%
    17:00 +1°C° 0.3 mm 15 mps 752 mmHg 65%
    18:00 0°C° 0.3 mm 16 mps 752 mmHg 67%
    19:00 +1°C° 0.3 mm 16 mps 752 mmHg 68%
    20:00 +1°C° 0.3 mm 16 mps 753 mmHg 68%
    21:00 +1°C° 0.3 mm 16 mps 753 mmHg 69%
    22:00 +1°C° 0.6 mm 15 mps 754 mmHg 69%
    23:00 +3°C° 0.6 mm 14 mps 754 mmHg 69%
    Show more